When you browse on this site, cookies collect data to enhance your experience and personalize the content and advertising you see.
Visit our Privacy Policy to learn more. By continuing to use the site, you agree to this use of cookies and data.
  • Em Portugal
  • Lista de países
  • Para 7 dias
  • Temperatura da água
  • Mapas de satélite
  • Mapa do tempo
  • Widgets de tempo
  • user-avatar
    Iniciar Sessão

    Previsão horária em Belkovo

    Hoje, 26 Junho, Quarta-feira

    Tempo Temperatura Precipitação Vento Pressão Humidade
    00:00 +14°C° 0 mm 0 m/s 761 mmHg 52%
    01:00 +13°C° 0 mm 0 m/s 761 mmHg 53%
    02:00 +14°C° 0 mm 0 m/s 761 mmHg 51%
    03:00 +14°C° 0 mm 0 m/s 760 mmHg 55%
    04:00 +14°C° 0 mm 0 m/s 760 mmHg 58%
    05:00 +14°C° 0 mm 0 m/s 759 mmHg 61%
    06:00 +15°C° 0 mm 0 m/s 759 mmHg 61%
    07:00 +16°C° 0 mm 0 m/s 759 mmHg 62%
    08:00 +17°C° 0 mm 0 m/s 758 mmHg 62%
    09:00 +20°C° 0 mm 1 m/s 758 mmHg 61%
    10:00 +20°C° 0 mm 1 m/s 758 mmHg 59%
    11:00 +20°C° 0 mm 2 m/s 757 mmHg 57%
    12:00 +19°C° 0 mm 2 m/s 757 mmHg 58%
    13:00 +19°C° 0 mm 3 m/s 757 mmHg 59%
    14:00 +19°C° 0 mm 3 m/s 756 mmHg 60%
    15:00 +19°C° 0 mm 3 m/s 756 mmHg 61%
    16:00 +19°C° 0 mm 3 m/s 755 mmHg 61%
    17:00 +19°C° 0 mm 3 m/s 754 mmHg 62%
    18:00 +18°C° 0 mm 3 m/s 754 mmHg 65%
    19:00 +17°C° 0 mm 3 m/s 753 mmHg 69%
    20:00 +17°C° 0 mm 3 m/s 752 mmHg 72%
    21:00 +16°C° 0.1 mm 3 m/s 752 mmHg 74%
    22:00 +16°C° 0.1 mm 3 m/s 751 mmHg 77%
    23:00 +14°C° 0.1 mm 3 m/s 750 mmHg 79%

    Amanhã, 27 Junho, Quinta-feira

    Tempo Temperatura Precipitação Vento Pressão Humidade
    00:00 +14°C° 1.6 mm 3 m/s 749 mmHg 85%
    01:00 +14°C° 1.6 mm 3 m/s 748 mmHg 92%
    02:00 +14°C° 1.6 mm 3 m/s 748 mmHg 98%
    03:00 +14°C° 1.4 mm 3 m/s 747 mmHg 98%
    04:00 +16°C° 1.4 mm 2 m/s 746 mmHg 98%
    05:00 +17°C° 1.4 mm 2 m/s 745 mmHg 98%
    06:00 +17°C° 1.6 mm 2 m/s 745 mmHg 98%
    07:00 +17°C° 1.6 mm 2 m/s 744 mmHg 98%
    08:00 +16°C° 1.6 mm 3 m/s 744 mmHg 98%
    09:00 +15°C° 0.5 mm 4 m/s 744 mmHg 97%
    10:00 +14°C° 0.5 mm 5 m/s 744 mmHg 96%
    11:00 +14°C° 0.5 mm 6 m/s 744 mmHg 94%
    12:00 +15°C° 0 mm 6 m/s 744 mmHg 88%
    13:00 +15°C° 0 mm 6 m/s 745 mmHg 82%
    14:00 +16°C° 0 mm 6 m/s 745 mmHg 76%
    15:00 +16°C° 0 mm 6 m/s 745 mmHg 75%
    16:00 +16°C° 0 mm 6 m/s 745 mmHg 74%
    17:00 +16°C° 0 mm 6 m/s 745 mmHg 72%
    18:00 +16°C° 0 mm 5 m/s 745 mmHg 75%
    19:00 +15°C° 0 mm 5 m/s 745 mmHg 77%
    20:00 +15°C° 0 mm 4 m/s 746 mmHg 79%
    21:00 +14°C° 0 mm 4 m/s 746 mmHg 83%
    22:00 +13°C° 0 mm 4 m/s 746 mmHg 87%
    23:00 +12°C° 0 mm 4 m/s 746 mmHg 91%

    Depois de amanhã, 28 Junho, Sexta-feira

    Tempo Temperatura Precipitação Vento Pressão Humidade
    00:00 +12°C° 0 mm 4 m/s 746 mmHg 91%
    01:00 +12°C° 0 mm 5 m/s 746 mmHg 90%
    02:00 +13°C° 0 mm 6 m/s 746 mmHg 89%
    03:00 +13°C° 0 mm 6 m/s 746 mmHg 86%
    04:00 +12°C° 0 mm 7 m/s 746 mmHg 83%
    05:00 +12°C° 0 mm 7 m/s 746 mmHg 79%
    06:00 +13°C° 0 mm 8 m/s 747 mmHg 75%
    07:00 +13°C° 0 mm 8 m/s 747 mmHg 70%
    08:00 +15°C° 0 mm 8 m/s 747 mmHg 66%
    09:00 +16°C° 0 mm 9 m/s 747 mmHg 62%
    10:00 +16°C° 0 mm 9 m/s 747 mmHg 58%
    11:00 +17°C° 0 mm 9 m/s 748 mmHg 54%
    12:00 +17°C° 0 mm 9 m/s 748 mmHg 53%
    13:00 +17°C° 0 mm 9 m/s 748 mmHg 51%
    14:00 +17°C° 0 mm 9 m/s 748 mmHg 50%
    15:00 +17°C° 0 mm 9 m/s 748 mmHg 49%
    16:00 +17°C° 0 mm 9 m/s 748 mmHg 48%
    17:00 +16°C° 0 mm 9 m/s 749 mmHg 47%
    18:00 +15°C° 0 mm 7 m/s 749 mmHg 51%
    19:00 +14°C° 0 mm 6 m/s 749 mmHg 54%
    20:00 +13°C° 0 mm 4 m/s 749 mmHg 58%
    21:00 +12°C° 0 mm 4 m/s 750 mmHg 58%
    22:00 +12°C° 0 mm 4 m/s 750 mmHg 57%
    23:00 +11°C° 0 mm 4 m/s 750 mmHg 57%

    29 Junho, Sábado

    Tempo Temperatura Precipitação Vento Pressão Humidade
    00:00 +10°C° 0 mm 4 m/s 750 mmHg 59%
    01:00 +10°C° 0 mm 4 m/s 750 mmHg 62%
    02:00 +8°C° 0 mm 4 m/s 750 mmHg 64%
    03:00 +8°C° 0 mm 4 m/s 750 mmHg 66%
    04:00 +10°C° 0 mm 4 m/s 750 mmHg 67%
    05:00 +10°C° 0 mm 4 m/s 750 mmHg 68%
    06:00 +10°C° 0 mm 5 m/s 750 mmHg 63%
    07:00 +13°C° 0 mm 5 m/s 750 mmHg 58%
    08:00 +15°C° 0 mm 6 m/s 750 mmHg 53%
    09:00 +16°C° 0 mm 6 m/s 750 mmHg 49%
    10:00 +16°C° 0 mm 6 m/s 750 mmHg 45%
    11:00 +17°C° 0 mm 6 m/s 750 mmHg 40%
    12:00 +19°C° 0 mm 6 m/s 750 mmHg 39%
    13:00 +19°C° 0 mm 6 m/s 749 mmHg 38%
    14:00 +20°C° 0 mm 6 m/s 749 mmHg 37%
    15:00 +20°C° 0 mm 5 m/s 749 mmHg 40%
    16:00 +19°C° 0 mm 5 m/s 749 mmHg 43%
    17:00 +19°C° 0 mm 4 m/s 749 mmHg 46%
    18:00 +18°C° 0 mm 3 m/s 749 mmHg 55%
    19:00 +17°C° 0 mm 3 m/s 750 mmHg 63%
    20:00 +16°C° 0 mm 2 m/s 750 mmHg 71%
    21:00 +15°C° 0 mm 2 m/s 750 mmHg 77%
    22:00 +13°C° 0 mm 3 m/s 750 mmHg 83%
    23:00 +13°C° 0 mm 3 m/s 750 mmHg 88%

    30 Junho, Domingo

    Tempo Temperatura Precipitação Vento Pressão Humidade
    00:00 +13°C° 0 mm 3 m/s 750 mmHg 87%
    01:00 +12°C° 0 mm 4 m/s 750 mmHg 86%
    02:00 +12°C° 0 mm 4 m/s 751 mmHg 85%
    03:00 +12°C° 0 mm 4 m/s 751 mmHg 85%
    04:00 +12°C° 0 mm 4 m/s 751 mmHg 84%
    05:00 +12°C° 0 mm 3 m/s 751 mmHg 83%
    06:00 +14°C° 0 mm 3 m/s 751 mmHg 79%
    07:00 +16°C° 0 mm 3 m/s 751 mmHg 74%
    08:00 +17°C° 0 mm 3 m/s 751 mmHg 69%
    09:00 +18°C° 0 mm 3 m/s 751 mmHg 65%
    10:00 +20°C° 0 mm 3 m/s 752 mmHg 60%
    11:00 +21°C° 0 mm 2 m/s 752 mmHg 55%
    12:00 +24°C° 0 mm 3 m/s 751 mmHg 52%
    13:00 +25°C° 0 mm 3 m/s 751 mmHg 49%
    14:00 +27°C° 0 mm 3 m/s 751 mmHg 45%
    15:00 +27°C° 0 mm 3 m/s 750 mmHg 47%
    16:00 +27°C° 0 mm 3 m/s 750 mmHg 48%
    17:00 +27°C° 0 mm 4 m/s 749 mmHg 49%
    18:00 +26°C° 0 mm 4 m/s 749 mmHg 58%
    19:00 +23°C° 0 mm 4 m/s 749 mmHg 66%
    20:00 +22°C° 0 mm 3 m/s 748 mmHg 74%
    21:00 +21°C° 0 mm 4 m/s 748 mmHg 78%
    22:00 +20°C° 0 mm 4 m/s 748 mmHg 82%
    23:00 +20°C° 0 mm 4 m/s 748 mmHg 85%

    1 Julho, Segunda-feira

    Tempo Temperatura Precipitação Vento Pressão Humidade
    00:00 +19°C° 0 mm 4 m/s 747 mmHg 87%
    01:00 +19°C° 0 mm 4 m/s 747 mmHg 88%
    02:00 +19°C° 0 mm 4 m/s 746 mmHg 89%
    03:00 +19°C° 0 mm 4 m/s 746 mmHg 87%
    04:00 +19°C° 0 mm 5 m/s 745 mmHg 85%
    05:00 +20°C° 0 mm 5 m/s 745 mmHg 83%
    06:00 +21°C° 0 mm 5 m/s 745 mmHg 79%
    07:00 +22°C° 0 mm 5 m/s 745 mmHg 75%
    08:00 +23°C° 0 mm 5 m/s 745 mmHg 71%
    09:00 +25°C° 0 mm 5 m/s 745 mmHg 64%
    10:00 +26°C° 0 mm 5 m/s 745 mmHg 58%
    11:00 +27°C° 0 mm 6 m/s 745 mmHg 51%
    12:00 +27°C° 0 mm 6 m/s 745 mmHg 49%
    13:00 +27°C° 0 mm 6 m/s 745 mmHg 46%
    14:00 +27°C° 0 mm 6 m/s 745 mmHg 44%
    15:00 +26°C° 0 mm 5 m/s 745 mmHg 46%
    16:00 +26°C° 0 mm 5 m/s 745 mmHg 48%
    17:00 +25°C° 0 mm 5 m/s 745 mmHg 50%
    18:00 +23°C° 0 mm 4 m/s 745 mmHg 57%
    19:00 +21°C° 0 mm 3 m/s 745 mmHg 63%
    20:00 +19°C° 0 mm 3 m/s 745 mmHg 69%
    21:00 +18°C° 0 mm 2 m/s 746 mmHg 74%
    22:00 +16°C° 0 mm 2 m/s 746 mmHg 78%
    23:00 +14°C° 0 mm 2 m/s 746 mmHg 83%
    Mostrar mais